Terminal Aerodrome Forecast
Issued by NWS Houston/Galveston, TX

Home | Current Version | Previous Version | Text Only | Print | Product List | Glossary On
Versions: 1 2 3 4 5 6 7 8 9 10 11 12 13 14 15 16 17 18 19 20 21 22 23 24
000
FTUS44 KHGX 101735
TAFGLS
TAF
KGLS 101735Z 1018/1118 08014KT P6SM FEW007 OVC080
     FM110400 12013KT P6SM SCT020 BKN035
      TEMPO 1110/1114 OVC013
     FM111400 15015KT P6SM BKN020 OVC030=

USA.gov is the U.S. government's official web portal to all federal, state and local government web resources and services.